Station SLVM5 - Silver Bay, MN Image indicating link to RSS feed of recent meteorological observations for station SLVM5


Conditions at SLVM5 as of
(7:40 am CDT)
1240 GMT on 07/20/2024:
     

Click on the graph icon in the table below to see a time series plot of the last five days of that observation.

5-day plot - Wind Direction Wind Direction (WDIR):SSW ( 210 deg true )
5-day plot - Wind Speed Wind Speed (WSPD): 7.0 kts
5-day plot - Wind Gust Wind Gust (GST): 8.0 kts
5-day plot - Atmospheric Pressure Atmospheric Pressure (PRES):30.06 in
5-day plot - Air Temperature Air Temperature (ATMP): 62.1 °F
5-day plot - Wind Speed at 10 Meters Wind Speed at 10 meters (WSPD10M): 7.8 kts
5-day plot - Wind Speed at 20 Meters Wind Speed at 20 meters (WSPD20M): 7.8 kts
5-day plot -  Wind Speed, Wind Gust and Atmospheric Pressure Combined plot of Wind Speed, Gust, and Air Pressure
Previous observations
TIME
(CDT)
5-day plot - Wind Direction
WDIR
 
5-day plot - Wind Speed
WSPD
kts
5-day plot - Wind Gust
GST
kts
5-day plot - Wave Height
WVHT
ft
5-day plot - Dominant Wave Period
DPD
sec
5-day plot - Average Wave Period
APD
sec
5-day plot - Mean Wave Direction
MWD
 
5-day plot - Atmospheric Pressure
PRES
in
5-day plot - Pressure Tendency
PTDY
in
5-day plot - Air Temperature
ATMP
°F
5-day plot - Water Temperature
WTMP
°F
5-day plot - Dew Point
DEWP
°F
5-day plot - Salinity
SAL
psu
5-day plot - Visibility
VIS
nmi
5-day plot - Tide (above MLLW)
TIDE
ft
2024-07-20 07:30 am SW 8.0 8.9----30.06- 64.6-----
2024-07-20 07:20 amWSW 7.0 9.9----30.06- 65.1-----
2024-07-20 07:10 amWSW 7.0 8.9----30.05- 64.0-----
2024-07-20 07:00 amWSW 7.0 8.9----30.05- 64.9-----
2024-07-20 06:50 amWSW 7.0 7.0----30.05- 64.8-----
2024-07-20 06:40 amWSW 7.0 8.0----30.05- 64.0-----
2024-07-20 06:30 amWSW 7.0 8.0----30.05- 63.3-----
2024-07-20 06:20 amWSW 8.0 8.9----30.04- 62.8-----
2024-07-20 06:10 am SW 8.0 8.9----30.04- 62.8-----
2024-07-20 06:00 amWSW 7.0 12.0----30.04- 62.6-----
2024-07-20 05:50 amWSW 9.9 12.0----30.03- 63.1-----
2024-07-20 05:40 am SW 9.9 11.1----30.03- 63.1-----
2024-07-20 05:30 amWSW 6.0 9.9----30.03- 62.8-----
2024-07-20 05:20 amWSW 7.0 11.1----30.03- 62.8-----
2024-07-20 05:10 amWSW 7.0 9.9----30.02- 63.1-----
2024-07-20 05:00 amWSW 8.0 20.0----30.02- 63.1-----
2024-07-20 04:50 am SW 6.0 8.0----30.02- 64.0-----
2024-07-20 04:40 amSSW 6.0 9.9----30.02- 62.6-----
2024-07-20 04:30 amSSW 7.0 8.9----30.01- 63.5-----
2024-07-20 04:20 amSSW 8.0 9.9----30.01- 64.2-----
2024-07-20 04:10 am W 4.1 8.0----30.01- 68.4-----
2024-07-20 04:00 am NW 6.0 11.1----30.01+0.00 68.9-----
2024-07-20 03:50 am NW 4.1 12.0----30.01- 69.6-----
2024-07-20 03:40 am NW 8.0 15.9----30.00- 70.3-----
2024-07-20 03:30 am NW 11.1 15.9----30.00- 70.2-----
2024-07-20 03:20 am NW 8.9 18.1----30.00- 69.8-----
2024-07-20 03:10 am NW 8.9 20.0----30.00- 69.4-----
2024-07-20 03:00 am NW 9.9 21.0----30.00- 69.6-----
2024-07-20 02:50 am NW 9.9 19.0----30.00- 70.0-----
2024-07-20 02:40 am NW 8.9 20.0----30.00- 69.6-----
2024-07-20 02:30 am NW 12.0 21.0----30.00- 70.0-----
2024-07-20 02:20 am NW 8.9 20.0----30.00- 70.2-----
2024-07-20 02:10 am NW 9.9 15.9----30.00- 70.5-----
2024-07-20 02:00 am NW 8.0 15.9----30.01+0.00 70.5-----
2024-07-20 01:50 am NW 9.9 17.1----30.01- 70.9-----
2024-07-20 01:40 am NW 8.0 15.0----30.01- 71.1-----
2024-07-20 01:30 am NW 11.1 19.0----30.01- 71.1-----
2024-07-20 01:20 am NW 12.0 18.1----30.01- 71.2-----
2024-07-20 01:10 amWNW 11.1 18.1----30.01- 71.1-----
2024-07-20 01:00 amWNW 8.0 15.9----30.01- 70.2-----
2024-07-20 12:50 amWNW 8.0 15.0----30.01- 70.0-----
2024-07-20 12:40 amWNW 8.0 15.9----30.01- 71.1-----
2024-07-20 12:30 am NW 8.0 15.0----30.01- 71.4-----
2024-07-20 12:20 amWNW 9.9 15.0----30.01- 71.8-----
2024-07-20 12:10 amWNW 8.9 15.0----30.01- 71.8-----
2024-07-20 12:00 amWNW 8.9 15.0----30.01+0.01 72.7-----
2024-07-19 11:50 pmWNW 8.0 13.0----30.01- 72.7-----
2024-07-19 11:40 pmWNW 8.0 13.0----30.01- 73.2-----
2024-07-19 11:30 pmWNW 8.0 12.0----30.01- 72.9-----
2024-07-19 11:20 pmWNW 7.0 12.0----30.01- 72.9-----
2024-07-19 11:10 pm NW 7.0 13.0----30.01- 73.0-----
2024-07-19 11:00 pm NW 8.0 14.0----30.01- 72.9-----
2024-07-19 10:50 pmWNW 7.0 11.1----30.01- 73.2-----
2024-07-19 10:40 pmWNW 8.0 13.0----30.01- 73.9-----
2024-07-19 10:30 pm NW 8.0 12.0----30.01- 74.1-----
2024-07-19 10:20 pmWNW 7.0 12.0----30.01- 73.6-----
2024-07-19 10:10 pmWNW 7.0 11.1----30.01- 73.2-----
2024-07-19 10:00 pmWNW 8.0 11.1----30.01+0.01 73.9-----
2024-07-19 09:50 pmWNW 6.0 9.9----30.01- 74.1-----
2024-07-19 09:40 pmWNW 6.0 8.9----30.01- 74.3-----
2024-07-19 09:30 pmWNW 6.0 9.9----30.01- 72.0-----
2024-07-19 09:20 pmWSW 4.1 6.0----30.01- 69.8-----
2024-07-19 09:10 pm SW 2.9 6.0----30.01- 70.2-----
2024-07-19 09:00 pm SW 5.1 7.0----30.00+0.00 70.2-----
2024-07-19 08:50 pm SW 6.0 7.0----30.00- 70.5-----
2024-07-19 08:40 pmWSW 5.1 6.0----30.00- 68.0-----
2024-07-19 08:30 pmWSW 5.1 7.0----30.00- 69.1-----
2024-07-19 08:20 pm SW 6.0 8.0----30.00- 69.4-----
2024-07-19 08:10 pm SW 7.0 8.0----30.00- 66.9-----
2024-07-19 08:00 pmWSW 6.0 8.0----30.00-0.01 66.2-----
2024-07-19 07:50 pm SW 7.0 9.9----30.00- 66.2-----
2024-07-19 07:40 pm SW 7.0 9.9----30.00- 66.6-----
2024-07-19 07:30 pm SW 8.9 9.9----30.00- 68.0-----
2024-07-19 07:20 pm SW 8.9 13.0----30.00- 67.5-----
2024-07-19 07:10 pm SW 12.0 14.0----30.00- 67.6-----
2024-07-19 07:01 pm SW 13.0 17.1----30.00- 67.5-----
2024-07-19 07:00 pm SW 13.0 14.0----30.00-0.02 67.5-----
2024-07-19 06:50 pm SW 13.0 14.0----30.00- 67.5-----
2024-07-19 06:40 pm SW 13.0 15.0----30.00- 67.8-----
2024-07-19 06:30 pm SW 15.0 15.9----30.00- 67.6-----
2024-07-19 06:20 pm SW 14.0 15.0----29.99- 67.5-----
2024-07-19 06:10 pm SW 14.0 17.1----30.00- 68.7-----
2024-07-19 06:00 pm SW 15.0 17.1----30.00- 67.8-----
2024-07-19 05:50 pm SW 13.0 15.9----30.00- 68.9-----
2024-07-19 05:40 pm SW 13.0 15.9----30.00- 68.4-----
2024-07-19 05:30 pm SW 13.0 15.9----30.00- 67.6-----
2024-07-19 05:20 pm SW 15.0 17.1----30.00- 67.6-----
2024-07-19 05:10 pm SW 13.0 15.0----30.00- 68.7-----
2024-07-19 05:00 pm SW 14.0 15.9----30.01- 67.8-----
2024-07-19 04:50 pm SW 13.0 14.0----30.01- 67.8-----
2024-07-19 04:40 pm SW 13.0 14.0----30.01- 68.7-----
2024-07-19 04:30 pm SW 13.0 14.0----30.01- 67.8-----
2024-07-19 04:20 pm SW 13.0 14.0----30.01- 68.9-----
2024-07-19 04:10 pm SW 12.0 13.0----30.02- 68.0-----
2024-07-19 04:00 pm SW 11.1 14.0----30.02- 69.8-----
2024-07-19 03:50 pm SW 11.1 14.0----30.02- 68.9-----
2024-07-19 03:40 pm SW 12.0 13.0----30.03- 68.2-----
2024-07-19 03:30 pm SW 12.0 14.0----30.03- 69.8-----
2024-07-19 03:20 pm SW 12.0 13.0----30.03- 69.3-----
2024-07-19 03:10 pm SW 11.1 12.0----30.03- 68.4-----
2024-07-19 03:00 pm SW 11.1 13.0----30.03-0.03 68.5-----
2024-07-19 02:50 pm SW 11.1 12.0----30.03- 68.7-----
2024-07-19 02:40 pm SW 12.0 13.0----30.04- 68.7-----
2024-07-19 02:30 pm SW 12.0 13.0----30.04- 68.5-----
2024-07-19 02:20 pm SW 11.1 14.0----30.04- 68.5-----
2024-07-19 02:10 pm SW 12.0 13.0----30.04- 68.4-----
2024-07-19 02:05 pm SW 12.0 15.0----30.04- 67.5-----
2024-07-19 02:00 pm SW 12.0 14.0----30.04-0.04 67.3-----
2024-07-19 01:50 pm SW 12.0 14.0----30.04- 68.4-----
2024-07-19 01:40 pm SW 12.0 14.0----30.05- 67.6-----
2024-07-19 01:30 pm SW 13.0 15.0----30.05- 67.3-----
2024-07-19 01:20 pm SW 13.0 15.0----30.05- 68.0-----
2024-07-19 01:10 pm SW 12.0 15.0----30.05- 68.0-----
2024-07-19 01:05 pm SW 13.0 15.0----30.05- 67.8-----
2024-07-19 01:00 pm SW 13.0 15.0----30.05-0.04 67.8-----
2024-07-19 12:50 pm SW 12.0 14.0----30.05- 67.1-----
2024-07-19 12:40 pmSSW 9.9 12.0----30.05- 67.1-----
2024-07-19 12:30 pm SW 11.1 11.1----30.06- 66.6-----
2024-07-19 12:20 pm SW 8.9 11.1----30.06- 67.1-----
2024-07-19 12:10 pmSSW 9.9 13.0----30.06- 66.6-----
2024-07-19 12:04 pmSSW 9.9 15.9----30.06- 66.7-----
2024-07-19 12:00 pm SW 12.0 15.0----30.06-0.04 66.7-----
2024-07-19 11:50 am SW 13.0 14.0----30.06- 67.8-----
2024-07-19 11:40 am SW 9.9 14.0----30.06- 66.7-----
2024-07-19 11:30 am SW 9.9 15.0----30.06- 69.1-----
2024-07-19 11:20 am SW 14.0 15.0----30.06- 67.1-----
2024-07-19 11:10 amSSW 13.0 15.9----30.07- 66.7-----
2024-07-19 11:04 am SW 11.1 15.0----30.08- 66.7-----
2024-07-19 11:00 am SW 11.1 14.0----30.08-0.02 66.7-----
2024-07-19 10:50 amSSW 12.0 13.0----30.08- 66.7-----
2024-07-19 10:40 am SW 11.1 14.0----30.08- 66.2-----
2024-07-19 10:30 amSSW 12.0 15.0----30.08- 66.4-----
2024-07-19 10:20 am SW 12.0 14.0----30.08- 67.1-----
2024-07-19 10:10 am SW 12.0 14.0----30.08- 66.6-----
2024-07-19 10:04 am SW 13.0 14.0----30.09- 66.4-----
2024-07-19 10:00 am SW 11.1 14.0----30.09-0.01 66.4-----
2024-07-19 09:50 amSSW 11.1 13.0----30.09- 66.7-----
2024-07-19 09:40 amSSW 11.1 14.0----30.09- 65.7-----
2024-07-19 09:30 amSSW 12.0 14.0----30.09- 65.5-----
2024-07-19 09:20 am S 8.9 13.0----30.09- 66.9-----
2024-07-19 09:10 amSSW 8.0 11.1----30.10- 67.8-----
2024-07-19 09:03 amSSW 8.0 12.0----30.10- 68.2-----
2024-07-19 09:00 amSSW 7.0 9.9----30.10+0.01 68.2-----
2024-07-19 08:50 amSSW 8.0 11.1----30.10- 66.9-----
2024-07-19 08:40 amWSW 7.0 9.9----30.10- 69.8-----
2024-07-19 08:30 amWSW 6.0 12.0----30.10- 69.1-----
2024-07-19 08:20 am W 6.0 11.1----30.10- 70.7-----
2024-07-19 08:10 am W 5.1 8.0----30.10- 69.3-----
2024-07-19 08:03 amWSW 6.0 15.0----30.09- 68.0-----
2024-07-19 08:00 amWSW 7.0 9.9----30.10+0.02 68.0-----
2024-07-19 07:50 am SW 8.0 9.9----30.10- 66.7-----